Location: Kunchanapalle
(16.4623°N, 80.6176°E)
Time: 18:58:10
(UTC+00:00)

PSLV R/B - Pass Details

Date: 13 August 2020
Orbit: 594 x 629 km, 97.9° (Epoch: 20 September)

Event Time Altitude Azimuth Distance (km) Brightness Sun altitude
Rises 22:31:27 0° 5° (N) 2,897 7.4 -25.6°
Reaches altitude 10° 22:33:41 10° 1° (N) 1,985 6.4 -25.1°
Enters shadow 22:36:41 40° 336° (NNW) 908 4.3 -24.5°
